Location: *
(46.3500°N, 10.9000°E)
Time: 22:15:00
(UTC+00:00)

A-11 Canister half - Pass Details

Date: 27 April 2021
Orbit: 1526 x 1682 km, 47.3° (Epoch: 13 May)

Event Time Altitude Azimuth Distance (km) Brightness Sun altitude
Rises 10:46:32 0° 193° (SSW) 4,777 12.0 57.1°
Reaches altitude 10° 10:50:15 10° 182° (S) 3,821 11.8 57.3°
Maximum altitude 10:57:49 26° 130° (SE) 2,800 11.2 57.5°
Drops below altitude 10° 11:05:32 10° 79° (E) 3,921 11.2 57.6°
Sets 11:09:22 0° 68° (ENE) 4,926 11.5 57.6°
